Regional Weather Roundup
Issued by NWS

Home | Current Version | Previous Version | Graphics & Text | Print | Product List | Glossary Off
Versions: 1 2 3 4 5 6 7 8 9 10 11 12 13 14 15 16 17 18 19 20 21 22 23 24 25 26 27 28 29 30 31 32 33 34 35 36 37 38 39 40 41 42 43 44 45 46 47 48 49 50

000
ASUS43 KMKX 051421
RWRWI

WISCONSIN REGIONAL WEATHER ROUNDUP
NATIONAL WEATHER SERVICE MILWAUKEE/SULLIVAN WI
900 AM CDT SAT SEP 05 2015

NOTE: "FAIR" INDICATES FEW OR NO CLOUDS BELOW 12,000 FEET WITH NO
SIGNIFICANT WEATHER AND/OR OBSTRUCTIONS TO VISIBILITY.

WIZ001-002-006>008-014>016-023>028-051500-
NORTHWEST WISCONSIN

CITY           SKY/WX    TMP DP  RH WIND       PRES   REMARKS
SUPERIOR ARPT  CLOUDY    66  63  89 NE3       29.98F
ASHLAND        SUNNY     72  69  90 CALM      30.02S
HAYWARD        SUNNY     72  67  84 S7        30.01R
SIREN          PTSUNNY   75  68  79 S9        29.96R
CUMBERLAND     MOSUNNY   72  68  88 SE8       30.00F
RICE LAKE      MOSUNNY   72  67  83 SE8       30.02S
CHETEK         MOSUNNY   72  69  89 SE7       30.00F
LADYSMITH      PTSUNNY   71  68  92 SE5       30.05S FOG
EAU CLAIRE     MOSUNNY   73  68  84 SE6       30.00F
MENOMONIE      PTSUNNY   74  71  90 SE6       30.00F
NEW RICHMOND   CLOUDY    74  70  87 S10       29.97F
OSCEOLA        CLOUDY    75  74  98 CALM      29.98R
$$

WIZ003>005-009-010-017-018-051500-
NORTH CENTRAL WISCONSIN

CITY           SKY/WX    TMP DP  RH WIND       PRES   REMARKS
MANITOWISH WTR CLOUDY    68  68  99 S6        30.08R FOG
ARBOR VITAE    CLOUDY    72  70  93 S8        30.07F FOG
WOODRUFF       CLOUDY    72  70  93 S8        30.07F FOG
RHINELANDER    CLOUDY    70  66  87 S6        30.09F
EAGLE RIVER    CLOUDY    68  66  95 S3        30.08F FOG
LAND O LAKES   CLOUDY    69  65  90 S6        30.08F FOG
PHILLIPS       CLOUDY    68  68  99 SE5       30.05F FOG
TOMAHAWK       CLOUDY    68  65  91 SE3       30.08F FOG
MEDFORD        FOG       67  67 100 SE5       30.07S VSB 1/2
MERRILL        CLOUDY    69  68  96 SE6       30.08F FOG
$$

WIZ029-030-035-036-043>047-051500-
CENTRAL WISCONSIN

CITY           SKY/WX    TMP DP  RH WIND       PRES   REMARKS
WAUSAU         CLOUDY    70  67  90 SE7       30.06F FOG
MOSINEE        CLOUDY    66  66 100 SE6       30.09S FOG
MARSHFIELD     CLOUDY    69  65  86 SE7       30.07S FOG
STEVENS POINT  PTSUNNY   70  66  88 E5        30.08F FOG
WAUPACA        SUNNY     72  71  98 SE3       30.09S FOG
WAUTOMA        MOSUNNY   72  70  94 CALM      30.08F
WISC RAPIDS    MOSUNNY   72  65  78 SE5       30.08S
CAMP DOUGLAS   PTSUNNY   70  70 100 E5        30.04F
$$

WIZ011>013-019>022-031-037>040-048>050-051500-
NORTHEAST WISCONSIN

CITY           SKY/WX    TMP DP  RH WIND       PRES   REMARKS
ANTIGO         PTSUNNY   69  67  92 S7        30.10S
SHAWANO        NOT AVBL
OCONTO         CLOUDY    66  66 100 CALM      30.09S
STURGEON BAY   CLOUDY    66  64  94 CALM      30.12R
GREEN BAY      CLOUDY    68  66  93 E3        30.10S FOG
MANITOWOC      LGT RAIN  63  62  97 MISG      30.11R
APPLETON       MOSUNNY   70  68  94 VRB5      30.08
CLINTONVILLE   CLOUDY    68  64  88 CALM      30.09S FOG
OSHKOSH        SUNNY     71  66  84 S5        30.08S
$$

WIZ032>034-041-042-053>061-051500-
SOUTHWEST WISCONSIN

CITY           SKY/WX    TMP DP  RH WIND       PRES   REMARKS
LA CROSSE      PTSUNNY   75  70  84 S7        30.01S
SPARTA         PTSUNNY   75  65  71 CALM      30.04S
VIROQUA        PTSUNNY   72  68  87 E5        30.06R
BOSCOBEL       CLOUDY    74  71  91 W5        30.05F
PRAIRIE DU CHI PTSUNNY   76  71  85 E7        30.04F
PLATTEVILLE    PTSUNNY   74  72  95 SE8       30.08S
$$

WIZ056-057-062-063-064-067-068-051500-
SOUTH CENTRAL WISCONSIN

CITY           SKY/WX    TMP DP  RH WIND       PRES   REMARKS
REEDSBURG      MOSUNNY   74  70  86 CALM      30.06R
BARABOO/DELLS  MOSUNNY   76  67  73 CALM      30.06F
LONE ROCK      CLOUDY    71  69  93 E3        30.06R FOG
MINERAL POINT  CLOUDY    72  70  94 S7        30.08S
MADISON        MOSUNNY   73  67  81 SE3       30.07S
MIDDLETON      MOSUNNY   75  69  81 SE5       30.08S
WATERTOWN      CLOUDY    67  67 100 CALM      30.08F FOG
MONROE         LGT RAIN  70  68  94 S9        30.07F
JANESVILLE     CLOUDY    75  70  83 CALM      30.07F
$$

WIZ051-052-058>065-066-070>072-051500-
SOUTHEAST WISCONSIN

CITY           SKY/WX    TMP DP  RH WIND       PRES   REMARKS
MILWAUKEE      CLOUDY    69  67  93 SE6       30.10R
WAUKESHA       PTSUNNY   64  64 100 CALM      30.11F FOG
MILWAUKEE/TIMM CLOUDY    68  64  88 CALM      30.11R FOG
RACINE         CLOUDY    71  67  87 S3        30.11S
BURLINGTON     CLOUDY    67  66  99 SE3       30.10S FOG
KENOSHA        CLOUDY    71  70  96 CALM      30.10S FOG
FOND DU LAC    SUNNY     72  67  84 S5        30.09S
SHEBOYGAN      CLOUDY    67  66  97 S6        30.10S
WEST BEND      CLOUDY    64  63  94 CALM      30.10S FOG
JUNEAU         CLOUDY    67  66  97 SE3       30.10F FOG
$$

LSZ147-162-051500-
LAKE SUPERIOR

STATION/POSITION TIME  TEMP    WIND        PRES    WAVE
                       AIR SEA DIR/SP/G            HT/PER
                 (UTC) (F)     (DEG/KT/KT) (MB)    (FT/S)
W MID LAKE BUOY  1350   65 56  160/  2/  6 1016.1R   1/ 3
DEVILS ISLAND    1400   69     170/  9/ 12 1015.5S
PORT WING        1300   68     130/  2/  3 1015.6S
SAXON HARBOR     1300   69        CALM     1015.9
$$

LMZ867-665-643>646-051500-
LAKE MICHIGAN

STATION/POSITION TIME  TEMP    WIND        PRES    WAVE
                       AIR SEA DIR/SP/G            HT/PER
                 (UTC) (F)     (DEG/KT/KT) (MB)    (FT/S)
CHAMBERS ISLAND  1300   68      CALM  /  2 1018.6S
S GREEN BAY BUOY 1400   65 67  100/  4/  6 1020.3R
N MID LAKE BUOY  1350   66 67  270/  6/  8 1018.6R   0
NORTHPORT PIER   1401   67     310/  2/  4 1019.0R
SISTER BAY       1311   67        CALM       N/A
ALGOMA LAKESHORE 1314             CALM       N/A
KEWAUNEE LAKESHO 1400   64     160/  2/  3 1018.2R
SHEBOYGAN LAKESH 1400   63     160/  7/  7 1019.3F
PORT WASHINGTON  1300   61      CALM  /  1 1020.0R
ATWATER BUOY     1400   61 60   20/  4/  4 1020.7R
MILWAUKEE LAKESH 1410   62      40/  8/  8   N/A
S MID LAKE BUOY  1350   71 71  160/ 12/ 14 1018.2F   0
KENOSHA   LAKESH 1400   68     170/  2/  4 1018.6F
$$

TC  - TEMPERATURE IN CELSIUS
VSB - VISIBILITY IN STATUTE MILES
WCI - WIND CHILL INDEX
HX  - HEAT INDEX




USA.gov is the U.S. government's official web portal to all federal, state and local government web resources and services.